Tracking 31027 objects as of 19-Jul-2025
HD Live streaming from Space Station
objects crossing your sky now

STARLINK-3877

Track STARLINK-3877 now!
10-day predictions
STARLINK-3877 is classified as:


NORAD ID: 52355
Int'l Code: 2022-045AA
Perigee: 546.0 km
Apogee: 547.7 km
Inclination: 53.2 °
Period: 95.4 minutes
Semi major axis: 6917 km
RCS: Unknown
Launch date: April 29, 2022
Source: United States (US)
Launch site: AIR FORCE EASTERN TEST RANGE (AFETR)
Your satellite tracking list
RESURS O1 DEB
Track 1 satellite(s)




NASA's NSSDC Master Catalog

Two Line Element Set (TLE):
1 52355U 22045AA  25199.19908732  .00002086  00000-0  14910-3 0  9992
2 52355  53.2160 171.7905 0001222  66.2801 293.8319 15.08843558180381
Source of the keplerian elements: AFSPC